[[{"header":{"parameterUnit":"m.s-1","parameterCategory":1,"la1":30.2991,"la2":30.254,"lo1":-89.0895,"lo2":-89.0444,"dy":0.0017,"dx":0.0017,"nx":28,"ny":28,"refTime":"2025-03-16T21:00:00:Z","depth":0,"parameterNumber":2,"parameterNumberName":"U-component_of_WINDS"},"data":[0,0,0,0,0,0,0,0,0,0,0,0,0,0,0,0,0,0,0,0,0,0,0,0,0,0,0,0,0,0,0,0,0,0,0,0,0,0,0,0,0,0,0,0,0,0,0,0,0,0,0,0,0,0,0,0,0,0,5.9261,5.9263,0,5.939,5.9392,5.9393,5.9333,5.9329,5.9326,5.9323,5.9456,5.9462,5.9468,0,0,0,0,0,0,0,0,0,0,0,0,0,5.8966,5.8972,5.9261,5.9263,5.9265,5.939,5.9392,5.9394,5.9333,5.9329,5.9325,5.9321,5.9453,5.9461,5.9469,0,0,0,0,0,0,0,0,0,0,0,0,0,5.9094,5.8973,5.9261,5.925,5.925,5.939,5.9392,5.9394,5.9334,5.9329,5.9324,5.932,5.9451,5.946,5.947,5.9629,0,0,5.95,5.9505,0,0,0,0,0,0,0,0,5.9087,5.9105,5.925,5.9251,5.9251,5.934,5.9336,5.9473,5.9335,5.9302,5.9323,5.9317,5.9421,5.9433,5.9468,5.9635,5.9641,5.9501,5.9507,5.9511,5.9514,0,0,0,0,0,0,0,5.9078,5.9099,5.9312,5.9252,5.9253,5.9239,5.9252,5.9362,5.9388,5.9305,5.93,5.9316,5.9421,5.9459,5.9471,5.9643,5.9501,5.951,5.9516,5.952,5.995,5.9956,0,0,0,0,0,0,5.907,5.9092,5.9308,5.9316,5.9155,5.9248,5.9262,5.9317,5.9386,5.9392,5.9321,5.9313,5.9444,5.9459,5.9475,5.9668,5.9511,5.9521,5.9526,5.9945,5.9952,5.9958,0,0,0,0,0,0,5.9063,5.9089,5.9303,5.9203,5.9229,5.9258,5.932,5.9322,5.936,5.9398,5.9403,5.9355,5.9441,5.9461,5.9592,5.9672,5.9525,5.9534,5.9938,5.9947,5.9955,6.0054,0,0,0,0,0,0,5.9055,5.9087,5.9147,5.9205,5.9235,5.9417,5.9325,5.9328,5.9377,5.9368,5.9431,5.9437,5.9439,5.9578,5.9602,5.9683,5.9542,5.9931,5.9942,5.9952,6.0043,6.0064,6.0082,0,0,0,0,0,5.9045,5.917,5.9151,5.9177,5.931,5.9422,5.9439,5.9438,5.9383,5.9445,5.947,5.9435,5.9659,5.9592,5.9618,5.9703,5.9926,5.9939,5.9951,6.0035,6.006,6.0082,0,0,0,0,0,0,5.912,5.9177,5.9156,5.9303,5.9358,5.9411,5.9488,5.9465,5.9536,5.9525,5.9522,5.9536,5.9672,5.9701,5.9624,5.9862,5.9785,5.9803,5.9839,5.9863,5.9882,5.9873,5.955,0,0,0,0,0,5.9154,5.9239,5.9284,5.9409,5.9438,5.9459,5.9507,5.9502,5.9559,5.9582,5.9616,5.9673,5.9756,5.9811,5.989,6.0047,6.0061,6.0119,6.0139,6.0154,6.017,6.0259,6.0285,5.9999,5.9998,5.9998,0,0,5.9224,5.9266,5.9319,5.9426,5.9467,5.9557,5.9478,5.9575,5.9642,5.9596,5.9722,5.975,5.9813,5.9959,6.0025,5.9987,6.0253,6.017,6.0182,6.019,6.0274,6.0301,6.0325,6.0007,6.0005,6.0004,0,0,5.9398,5.9437,5.9547,5.9591,5.9656,5.967,5.9696,5.9754,5.9771,5.9897,5.9865,5.9945,6.0088,6.0135,6.0178,6.0374,6.0346,6.04,6.0501,6.0587,6.061,6.063,6.0702,6.0727,6.0416,6.0416,6.0416,0,5.9477,5.961,5.9607,5.9708,5.9756,5.972,5.9832,5.9875,5.9962,5.9998,5.9954,6.0135,6.0175,6.0332,6.038,6.0415,6.0447,6.0392,6.0607,6.0627,6.0645,6.0714,6.0741,6.0422,6.0421,6.0421,6.042,0,5.9705,5.9798,5.988,5.9966,6.0024,6.013,6.0144,6.0203,6.0194,6.0213,6.0343,6.039,6.0479,6.0516,6.0507,6.0674,6.0648,6.0606,6.0528,6.0679,6.0744,6.077,6.0431,6.0429,6.0427,6.0425,0,0,5.9929,6.0014,6.0044,6.0084,6.0154,6.0226,6.0332,6.0419,6.0471,6.0533,6.0623,6.0746,6.0709,6.0757,6.0754,6.0829,6.0984,6.0778,6.078,6.0816,6.1173,6.1205,6.1235,6.0966,6.0971,6.0975,6.1168,0,6.0109,6.0293,6.0295,6.0466,6.0553,6.0521,6.0613,6.0667,6.0688,6.0766,6.0789,6.0877,6.082,6.0849,6.0922,6.095,6.1056,6.0936,6.1051,6.1055,6.1037,6.1269,6.1302,6.1482,6.1193,6.1197,6.12,0,6.0344,6.0415,6.0594,6.0654,6.0691,6.0774,6.0855,6.093,6.0991,6.1001,6.1058,6.1044,6.1153,6.1072,6.1224,6.1142,6.119,6.1211,6.1218,6.1229,6.1137,6.1287,6.1539,6.1567,6.124,6.1236,6.1234,0,6.0491,6.0631,6.0757,6.0792,6.0865,6.0925,6.0958,6.1014,6.1068,6.114,6.1175,6.1258,6.1304,6.137,6.138,6.1319,6.1534,6.1452,6.1546,6.1547,6.1593,6.159,6.1857,6.1622,6.1622,6.1621,6.1621,0,6.0693,6.0804,6.0825,6.0902,6.1027,6.1029,6.1153,6.1181,6.1232,6.1316,6.1293,6.1373,6.138,6.1463,6.1471,6.1598,6.1618,6.163,6.1632,6.1633,6.1632,6.1664,6.1653,6.1628,6.1627,6.1625,6.1624,0,6.0878,6.0896,6.1032,6.109,6.1108,6.1198,6.1248,6.1323,6.1343,6.1449,6.1475,6.1506,6.1602,6.1618,6.1731,6.1737,6.1888,6.1876,6.1867,6.1866,6.196,6.1951,6.2258,6.23,6.2036,6.2039,6.2041,0,6.1006,6.1091,6.1159,6.1214,6.1251,6.1338,6.1393,6.1399,6.1458,6.1536,6.1602,6.1696,6.1771,6.1927,6.196,6.2047,6.2037,6.2139,6.205,6.205,6.2041,6.2036,6.2046,6.2156,6.2159,6.2161,6.2163,0,6.1231,6.1237,6.1316,6.1401,6.1467,6.1533,6.1596,6.1642,6.1657,6.1724,6.1822,6.1881,6.1997,6.2091,6.2178,6.2214,6.2193,6.2191,6.2218,6.222,6.2213,6.222,6.1915,6.2184,6.2182,6.218,6.2179,6.2178,6.1393,6.1468,6.1529,6.1619,6.1667,6.1727,6.1802,6.1831,6.1913,6.2008,6.2007,6.2116,6.2178,6.2293,6.2334,6.242,6.2387,6.2425,6.2435,6.2445,6.2455,6.2199,6.2436,6.2435,6.2434,6.2434,6.2434,0,6.1619,6.1657,6.174,6.1829,6.1901,6.1874,6.1944,6.2006,6.2101,6.2161,6.2236,6.2351,6.2443,6.2484,6.2575,6.2636,6.2629,6.266,6.2656,6.2665,6.2478,6.2446,6.2665,6.2665,6.2665,6.2665,6.2665,6.2665,6.1745,6.1871,6.1885,6.2036,6.2073,6.2179,6.2221,6.2277,6.2325,6.2454,6.2531,6.2557,6.261,6.2706,6.279,6.28,6.2835,6.2871,6.2877,6.2701,6.2678,6.2656,6.2626,6.2879,6.2879,6.3057,6.3059,6.306]},{"header":{"parameterUnit":"m.s-1","parameterCategory":1,"la1":30.2991,"la2":30.254,"lo1":-89.0895,"lo2":-89.0444,"dy":0.0017,"dx":0.0017,"nx":28,"ny":28,"refTime":"2025-03-16T21:00:00:Z","depth":0,"parameterNumber":3,"parameterNumberName":"V-component_of_WINDS"},"data":[0,0,0,0,0,0,0,0,0,0,0,0,0,0,0,0,0,0,0,0,0,0,0,0,0,0,0,0,0,0,0,0,0,0,0,0,0,0,0,0,0,0,0,0,0,0,0,0,0,0,0,0,0,0,0,0,0,0,-5.5275,-5.5276,0,-5.538,-5.5381,-5.5382,-5.5351,-5.5349,-5.5347,-5.5345,-5.5451,-5.5455,-5.546,0,0,0,0,0,0,0,0,0,0,0,0,0,-5.5046,-5.5051,-5.5275,-5.5276,-5.5277,-5.538,-5.5381,-5.5383,-5.5352,-5.5349,-5.5346,-5.5344,-5.5449,-5.5455,-5.5461,0,0,0,0,0,0,0,0,0,0,0,0,0,-5.5148,-5.5052,-5.5275,-5.5274,-5.5275,-5.538,-5.5381,-5.5383,-5.5352,-5.5349,-5.5346,-5.5343,-5.5447,-5.5454,-5.5462,-5.5572,0,0,-5.5484,-5.5487,0,0,0,0,0,0,0,0,-5.5142,-5.5156,-5.5273,-5.5275,-5.5276,-5.5349,-5.534,-5.5446,-5.5353,-5.5323,-5.5345,-5.5341,-5.542,-5.5429,-5.5456,-5.5577,-5.5581,-5.5484,-5.5489,-5.5492,-5.5494,0,0,0,0,0,0,0,-5.5135,-5.5152,-5.5316,-5.5275,-5.5277,-5.5269,-5.528,-5.536,-5.5388,-5.5325,-5.5323,-5.5336,-5.542,-5.5449,-5.5458,-5.5583,-5.5484,-5.5491,-5.5495,-5.5498,-5.58,-5.5804,0,0,0,0,0,0,-5.5127,-5.5146,-5.5313,-5.5319,-5.52,-5.5276,-5.5288,-5.5329,-5.5387,-5.5393,-5.5339,-5.5335,-5.5438,-5.5449,-5.5462,-5.5595,-5.5492,-5.5499,-5.5503,-5.5797,-5.5801,-5.5805,0,0,0,0,0,0,-5.5123,-5.5143,-5.5309,-5.5232,-5.5253,-5.5283,-5.533,-5.5333,-5.5362,-5.5398,-5.5402,-5.5364,-5.5436,-5.5451,-5.5545,-5.5598,-5.5502,-5.5509,-5.5792,-5.5798,-5.5803,-5.5862,0,0,0,0,0,0,-5.5116,-5.5141,-5.5183,-5.5234,-5.5257,-5.5391,-5.5333,-5.5337,-5.5375,-5.537,-5.5422,-5.5427,-5.5434,-5.5534,-5.5552,-5.5606,-5.5514,-5.5788,-5.5795,-5.5801,-5.5856,-5.5869,-5.5881,0,0,0,0,0,-5.5108,-5.5195,-5.5186,-5.5206,-5.5311,-5.5394,-5.5407,-5.5414,-5.5379,-5.5422,-5.5445,-5.5426,-5.559,-5.5544,-5.5564,-5.5621,-5.5784,-5.5793,-5.5801,-5.585,-5.5866,-5.588,0,0,0,0,0,0,-5.5149,-5.5202,-5.5192,-5.5297,-5.5342,-5.5388,-5.5442,-5.5431,-5.5485,-5.5479,-5.5484,-5.5496,-5.5592,-5.5616,-5.5565,-5.5731,-5.5682,-5.5694,-5.5712,-5.5728,-5.574,-5.5732,-5.552,0,0,0,0,0,-5.5171,-5.5234,-5.5276,-5.5366,-5.5389,-5.5412,-5.5448,-5.545,-5.5496,-5.5514,-5.5544,-5.5589,-5.565,-5.5691,-5.5749,-5.5859,-5.587,-5.5909,-5.5921,-5.5931,-5.5942,-5.6002,-5.602,-5.5832,-5.5832,-5.5832,0,0,-5.5215,-5.5252,-5.5292,-5.5375,-5.5409,-5.5475,-5.5428,-5.5499,-5.5548,-5.5524,-5.5615,-5.5639,-5.5689,-5.5792,-5.5838,-5.5814,-5.5996,-5.5942,-5.5949,-5.5955,-5.6013,-5.603,-5.6046,-5.5838,-5.5837,-5.5836,0,0,-5.5331,-5.5365,-5.5443,-5.5479,-5.5532,-5.5547,-5.5566,-5.5616,-5.5631,-5.5722,-5.5706,-5.5764,-5.587,-5.5907,-5.594,-5.6071,-5.6055,-5.609,-5.6154,-5.6214,-5.6228,-5.6242,-5.6289,-5.6305,-5.61,-5.61,-5.6101,0,-5.5379,-5.5478,-5.5485,-5.5558,-5.5595,-5.5579,-5.5658,-5.5693,-5.5762,-5.5788,-5.5761,-5.5894,-5.5927,-5.6038,-5.607,-5.6097,-5.6119,-5.6083,-5.6226,-5.6239,-5.6251,-5.6296,-5.6314,-5.6104,-5.6104,-5.6103,-5.6103,0,-5.5535,-5.5604,-5.5661,-5.573,-5.5774,-5.585,-5.5868,-5.5912,-5.591,-5.5928,-5.6022,-5.6061,-5.6127,-5.6154,-5.6152,-5.6266,-5.6249,-5.6224,-5.6174,-5.6273,-5.6315,-5.6333,-5.611,-5.6108,-5.6107,-5.6106,0,0,-5.5678,-5.5751,-5.5771,-5.5803,-5.5861,-5.5914,-5.599,-5.6056,-5.6093,-5.6142,-5.6206,-5.6297,-5.6274,-5.6311,-5.6314,-5.6366,-5.6468,-5.6334,-5.6336,-5.6358,-5.6596,-5.6614,-5.6634,-5.6459,-5.6462,-5.6464,-5.6591,0,-5.5798,-5.5931,-5.5941,-5.6061,-5.6125,-5.6111,-5.6177,-5.622,-5.624,-5.6296,-5.6318,-5.6382,-5.6347,-5.637,-5.6421,-5.6445,-5.6516,-5.6436,-5.6517,-5.652,-5.6505,-5.6656,-5.6675,-5.6793,-5.6608,-5.6611,-5.6613,0,-5.5955,-5.601,-5.6138,-5.6188,-5.6215,-5.6274,-5.6336,-5.6391,-5.644,-5.645,-5.6493,-5.6489,-5.6566,-5.6515,-5.6622,-5.6567,-5.6602,-5.6619,-5.6623,-5.6631,-5.6572,-5.6667,-5.6831,-5.6849,-5.6639,-5.6637,-5.6635,0,-5.6047,-5.6152,-5.6242,-5.627,-5.6331,-5.6373,-5.64,-5.6446,-5.6485,-5.6539,-5.6565,-5.6628,-5.6662,-5.671,-5.6723,-5.6684,-5.683,-5.6779,-5.6841,-5.6841,-5.6872,-5.687,-5.7043,-5.6895,-5.6894,-5.6894,-5.6894,0,-5.618,-5.6258,-5.6285,-5.634,-5.6428,-5.6438,-5.6524,-5.6549,-5.659,-5.665,-5.6641,-5.6698,-5.6712,-5.6771,-5.6782,-5.6869,-5.6885,-5.6895,-5.6897,-5.6896,-5.6895,-5.6918,-5.691,-5.6899,-5.6898,-5.6897,-5.6896,0,-5.6296,-5.6317,-5.6414,-5.6465,-5.6479,-5.6542,-5.6585,-5.6638,-5.6657,-5.6733,-5.6751,-5.6781,-5.685,-5.6869,-5.6951,-5.6958,-5.7062,-5.7056,-5.7045,-5.7045,-5.7106,-5.71,-5.73,-5.7327,-5.7161,-5.7163,-5.7164,0,-5.6379,-5.644,-5.6497,-5.6537,-5.6566,-5.6631,-5.6671,-5.6684,-5.6727,-5.6788,-5.6834,-5.6902,-5.6958,-5.7069,-5.7098,-5.7161,-5.7157,-5.7223,-5.7166,-5.7164,-5.7158,-5.7154,-5.716,-5.7233,-5.7235,-5.7236,-5.7238,0,-5.6525,-5.6533,-5.6592,-5.6656,-5.6705,-5.6756,-5.6804,-5.6837,-5.6856,-5.6905,-5.6976,-5.702,-5.7105,-5.7173,-5.7237,-5.7265,-5.7255,-5.7255,-5.7273,-5.7272,-5.7264,-5.7269,-5.7074,-5.725,-5.7249,-5.7248,-5.7248,-5.7247,-5.6627,-5.6681,-5.673,-5.6796,-5.6835,-5.688,-5.6933,-5.6959,-5.7019,-5.709,-5.7094,-5.7172,-5.722,-5.7305,-5.7337,-5.7398,-5.7378,-5.7403,-5.741,-5.7416,-5.7421,-5.7255,-5.741,-5.7409,-5.7409,-5.7409,-5.7408,0,-5.6773,-5.6804,-5.6865,-5.6934,-5.6987,-5.6974,-5.7027,-5.7072,-5.714,-5.7187,-5.7242,-5.7324,-5.7391,-5.7425,-5.7492,-5.7534,-5.7531,-5.7551,-5.7547,-5.7554,-5.7435,-5.7413,-5.7552,-5.7552,-5.7552,-5.7552,-5.7552,-5.7552,-5.6854,-5.6944,-5.6958,-5.7067,-5.7097,-5.7174,-5.7205,-5.7248,-5.7285,-5.7377,-5.7433,-5.7456,-5.7497,-5.7567,-5.7627,-5.7636,-5.7661,-5.7683,-5.7689,-5.7577,-5.7562,-5.7548,-5.7528,-5.7688,-5.7689,-5.7803,-5.7804,-5.7805]}]]